,,,PA_Meas_PMT16A,,PR_Meas_QMR101_102,,RH_Meas_QMH101,,SR_Meas_QMS101,,TA_Meas_QMH101,,GenWind,,GenWind,
date,time,status,PA,status,PR,status,RH,status,SR,status,TA,status,DirAvg,status,SpdAvg,
2011-04-15, 00:00:04,VALID,1008.55,VALID,0,VALID,103.489,VALID,0,VALID,24.0837,VALID,141,VALID,0.124219,
2011-04-15, 00:01:04,VALID,1008.52,VALID,0,VALID,103.428,VALID,0,VALID,24.0624,VALID,141,VALID,0,
2011-04-15, 00:02:04,VALID,1008.5,VALID,0,VALID,103.39,VALID,0,VALID,24.0837,VALID,141,VALID,0,
2011-04-15, 00:03:04,VALID,1008.52,VALID,0,VALID,103.375,VALID,0,VALID,24.0448,VALID,141,VALID,0,
2011-04-15, 00:04:04,VALID,1008.5,VALID,0,VALID,103.459,VALID,0.105969,VALID,24.0448,VALID,141,VALID,0,
2011-04-15, 00:05:04,VALID,1008.46,VALID,0,VALID,103.497,VALID,0,VALID,24.0448,VALID,141,VALID,0.379297,
2011-04-15, 00:06:04,VALID,1008.44,VALID,0,VALID,103.573,VALID,0,VALID,24.0235,VALID,141,VALID,0.263672,
2011-04-15, 00:07:04,VALID,1008.41,VALID,0,VALID,103.634,VALID,0,VALID,24.0448,VALID,141,VALID,0.23125,
2011-04-15, 00:08:04,VALID,1008.38,VALID,0,VALID,103.664,VALID,0,VALID,24.0643,VALID,141,VALID,0.0960938,
2011-04-15, 00:09:04,VALID,1008.36,VALID,0,VALID,103.687,VALID,0,VALID,24.0448,VALID,141,VALID,0,
2011-04-15, 00:10:04,VALID,1008.37,VALID,0,VALID,103.726,VALID,0,VALID,24.0643,VALID,141,VALID,0,
2011-04-15, 00:11:04,VALID,1008.37,VALID,0,VALID,103.748,VALID,0,VALID,24.0448,VALID,141,VALID,0,
2011-04-15, 00:12:04,VALID,1008.34,VALID,0,VALID,103.733,VALID,0,VALID,24.0643,VALID,141,VALID,0,
2011-04-15, 00:13:04,VALID,1008.31,VALID,0,VALID,103.733,VALID,0,VALID,24.0643,VALID,141,VALID,0,
2011-04-15, 00:14:04,VALID,1008.29,VALID,0,VALID,103.726,VALID,0,VALID,24.0448,VALID,141,VALID,0,
2011-04-15, 00:15:04,VALID,1008.26,VALID,0,VALID,103.672,VALID,0,VALID,24.0448,VALID,141,VALID,0,
2011-04-15, 00:16:04,VALID,1008.28,VALID,0,VALID,103.664,VALID,0.105969,VALID,24.0643,VALID,141,VALID,0,
2011-04-15, 00:17:04,VALID,1008.23,VALID,0,VALID,103.634,VALID,0,VALID,24.0624,VALID,141,VALID,0,
2011-04-15, 00:18:04,VALID,1008.23,VALID,0,VALID,103.634,VALID,0,VALID,24.0837,VALID,141,VALID,0,
2011-04-15, 00:19:04,VALID,1008.23,VALID,0,VALID,103.596,VALID,0,VALID,24.0837,VALID,141,VALID,0,
2011-04-15, 00:20:04,VALID,1008.21,VALID,0,VALID,103.611,VALID,0,VALID,24.0837,VALID,141,VALID,0,
2011-04-15, 00:21:04,VALID,1008.18,VALID,0,VALID,103.634,VALID,0,VALID,24.0624,VALID,141,VALID,0.328906,
2011-04-15, 00:22:04,VALID,1008.21,VALID,0,VALID,103.642,VALID,0,VALID,24.0837,VALID,141,VALID,0.337109,
2011-04-15, 00:23:04,VALID,1008.15,VALID,0,VALID,103.649,VALID,0,VALID,24.0837,VALID,141,VALID,0.283203,
2011-04-15, 00:24:04,VALID,1008.12,VALID,0,VALID,103.642,VALID,0,VALID,24.0837,VALID,141,VALID,0,
2011-04-15, 00:25:04,VALID,1008.09,VALID,0,VALID,103.626,VALID,0,VALID,24.0643,VALID,141,VALID,0,
2011-04-15, 00:26:04,VALID,1008.07,VALID,0,VALID,103.634,VALID,0,VALID,24.0643,VALID,141,VALID,0,
2011-04-15, 00:27:04,VALID,1008.05,VALID,0,VALID,103.642,VALID,0,VALID,24.0448,VALID,141,VALID,0.322656,
2011-04-15, 00:28:04,VALID,1008.04,VALID,0,VALID,103.672,VALID,0,VALID,24.0235,VALID,141,VALID,0.284766,
2011-04-15, 00:29:04,VALID,1008.02,VALID,0,VALID,103.718,VALID,0,VALID,24.0448,VALID,141,VALID,0.347266,
2011-04-15, 00:30:04,VALID,1008.03,VALID,0,VALID,103.764,VALID,0,VALID,24.0429,VALID,141,VALID,0.516797,
2011-04-15, 00:31:04,VALID,1008.07,VALID,0,VALID,103.764,VALID,0,VALID,24.0429,VALID,134,VALID,0.588281,
2011-04-15, 00:32:04,VALID,1008.06,VALID,0,VALID,103.718,VALID,0.105969,VALID,24.0429,VALID,106,VALID,0.498437,
2011-04-15, 00:33:04,VALID,1008.04,VALID,0,VALID,103.657,VALID,0,VALID,24.0253,VALID,95,VALID,0.642578,
2011-04-15, 00:34:04,VALID,1008.04,VALID,0,VALID,103.603,VALID,0.105969,VALID,23.9845,VALID,74,VALID,0.607031,
2011-04-15, 00:35:04,VALID,1008.05,VALID,0,VALID,103.657,VALID,0,VALID,23.965,VALID,74,VALID,0.540234,
2011-04-15, 00:36:04,VALID,1008.02,VALID,0,VALID,103.672,VALID,0.105969,VALID,23.9863,VALID,74,VALID,0.4,
2011-04-15, 00:37:04,VALID,1008.04,VALID,0,VALID,103.733,VALID,0,VALID,23.9473,VALID,85,VALID,0.760156,
2011-04-15, 00:38:04,VALID,1008,VALID,0,VALID,103.733,VALID,0,VALID,23.9278,VALID,85,VALID,0.894922,
2011-04-15, 00:39:04,VALID,1008.04,VALID,0,VALID,103.726,VALID,0,VALID,23.9084,VALID,85,VALID,0.955859,
2011-04-15, 00:40:04,VALID,1008.05,VALID,0,VALID,103.703,VALID,0,VALID,23.8481,VALID,89,VALID,0.741406,
2011-04-15, 00:41:04,VALID,1008.02,VALID,0,VALID,103.687,VALID,0,VALID,23.8694,VALID,89,VALID,0.496094,
2011-04-15, 00:42:04,VALID,1008.02,VALID,0,VALID,103.726,VALID,0,VALID,23.8481,VALID,89,VALID,0.603516,
2011-04-15, 00:43:04,VALID,1008.01,VALID,0,VALID,103.748,VALID,0.105969,VALID,23.8091,VALID,89,VALID,0.748828,
2011-04-15, 00:44:04,VALID,1008,VALID,0,VALID,103.787,VALID,0,VALID,23.8304,VALID,89,VALID,0.587891,
2011-04-15, 00:45:04,VALID,1007.97,VALID,0,VALID,103.84,VALID,0,VALID,23.7896,VALID,85,VALID,0.601563,
2011-04-15, 00:46:04,VALID,1007.99,VALID,0,VALID,103.87,VALID,0.105969,VALID,23.7896,VALID,84,VALID,0.446094,
2011-04-15, 00:47:04,VALID,1007.95,VALID,0,VALID,103.901,VALID,0.105969,VALID,23.8109,VALID,71,VALID,0.325781,
2011-04-15, 00:48:04,VALID,1007.93,VALID,0,VALID,103.901,VALID,0,VALID,23.8109,VALID,71,VALID,0.313281,
2011-04-15, 00:49:04,VALID,1007.95,VALID,0,VALID,103.893,VALID,0,VALID,23.7701,VALID,71,VALID,0.554297,
2011-04-15, 00:50:04,VALID,1007.91,VALID,0,VALID,103.901,VALID,0,VALID,23.772,VALID,72,VALID,0.582031,
2011-04-15, 00:51:04,VALID,1007.9,VALID,0,VALID,103.886,VALID,0,VALID,23.7312,VALID,100,VALID,0.446484,
2011-04-15, 00:52:04,VALID,1007.91,VALID,0,VALID,103.931,VALID,0.105969,VALID,23.7117,VALID,100,VALID,0.271875,
2011-04-15, 00:53:04,VALID,1007.88,VALID,0,VALID,103.931,VALID,0,VALID,23.7135,VALID,100,VALID,0.0761719,
2011-04-15, 00:54:04,VALID,1007.88,VALID,0,VALID,103.931,VALID,0,VALID,23.6922,VALID,100,VALID,0.335938,
2011-04-15, 00:55:04,VALID,1007.84,VALID,0,VALID,103.939,VALID,0,VALID,23.694,VALID,60,VALID,0.412891,
2011-04-15, 00:56:04,VALID,1007.85,VALID,0,VALID,103.962,VALID,0,VALID,23.694,VALID,60,VALID,0.280859,
2011-04-15, 00:57:04,VALID,1007.83,VALID,0,VALID,103.916,VALID,0,VALID,23.6745,VALID,60,VALID,0.547656,
2011-04-15, 00:58:04,VALID,1007.82,VALID,0,VALID,103.947,VALID,0,VALID,23.6745,VALID,56,VALID,0.550391,
2011-04-15, 00:59:04,VALID,1007.84,VALID,0,VALID,103.931,VALID,0,VALID,23.6356,VALID,53,VALID,0.523047,
2011-04-15, 01:00:04,VALID,1007.83,VALID,0,VALID,103.97,VALID,0,VALID,23.6143,VALID,69,VALID,0.674609,
2011-04-15, 01:01:04,VALID,1007.82,VALID,0,VALID,104,VALID,0,VALID,23.6161,VALID,74,VALID,0.316016,
2011-04-15, 01:02:04,VALID,1007.85,VALID,0,VALID,104,VALID,0,VALID,23.5753,VALID,74,VALID,0.206641,
2011-04-15, 01:03:04,VALID,1007.83,VALID,0,VALID,104,VALID,0.105969,VALID,23.5753,VALID,74,VALID,0.197656,
2011-04-15, 01:04:04,VALID,1007.83,VALID,0,VALID,104,VALID,0,VALID,23.5753,VALID,74,VALID,0.372656,
2011-04-15, 01:05:04,VALID,1007.82,VALID,0,VALID,104,VALID,0,VALID,23.5966,VALID,74,VALID,0.632422,
2011-04-15, 01:06:04,VALID,1007.81,VALID,0,VALID,104,VALID,0,VALID,23.5576,VALID,77,VALID,0.877344,
2011-04-15, 01:07:04,VALID,1007.83,VALID,0,VALID,104,VALID,0,VALID,23.5771,VALID,72,VALID,0.728906,
2011-04-15, 01:08:04,VALID,1007.83,VALID,0,VALID,104,VALID,0,VALID,23.5558,VALID,65,VALID,0.872656,
2011-04-15, 01:09:04,VALID,1007.79,VALID,0,VALID,104,VALID,0,VALID,23.5558,VALID,65,VALID,0.499219,
2011-04-15, 01:10:04,VALID,1007.8,VALID,0,VALID,104,VALID,0,VALID,23.5771,VALID,70,VALID,0.338672,
2011-04-15, 01:11:04,VALID,1007.79,VALID,0,VALID,104,VALID,0,VALID,23.5576,VALID,70,VALID,0.419922,
2011-04-15, 01:12:04,VALID,1007.8,VALID,0,VALID,104,VALID,0.105969,VALID,23.5966,VALID,75,VALID,0.382031,
2011-04-15, 01:13:04,VALID,1007.77,VALID,0,VALID,104,VALID,0,VALID,23.5753,VALID,75,VALID,0.246484,
2011-04-15, 01:14:04,VALID,1007.78,VALID,0,VALID,104,VALID,0,VALID,23.5753,VALID,75,VALID,0,
2011-04-15, 01:15:04,VALID,1007.76,VALID,0,VALID,104,VALID,0,VALID,23.5966,VALID,75,VALID,0.138281,
2011-04-15, 01:16:04,VALID,1007.74,VALID,0,VALID,104,VALID,0,VALID,23.6161,VALID,82,VALID,0.471094,
2011-04-15, 01:17:04,VALID,1007.75,VALID,0,VALID,104,VALID,0,VALID,23.6161,VALID,82,VALID,0.278516,
2011-04-15, 01:18:04,VALID,1007.71,VALID,0,VALID,104,VALID,0,VALID,23.6143,VALID,85,VALID,0.816016,
2011-04-15, 01:19:04,VALID,1007.7,VALID,0,VALID,104,VALID,0.105969,VALID,23.6338,VALID,85,VALID,0.488672,
2011-04-15, 01:20:04,VALID,1007.66,VALID,0,VALID,104,VALID,0.105969,VALID,23.6745,VALID,77,VALID,0.624609,
2011-04-15, 01:21:04,VALID,1007.64,VALID,0,VALID,104,VALID,0.105969,VALID,23.6532,VALID,74,VALID,0.405469,
2011-04-15, 01:22:04,VALID,1007.66,VALID,0,VALID,103.909,VALID,0,VALID,23.655,VALID,74,VALID,0.732813,
2011-04-15, 01:23:04,VALID,1007.64,VALID,0,VALID,103.901,VALID,0,VALID,23.6338,VALID,77,VALID,0.6625,
2011-04-15, 01:24:04,VALID,1007.67,VALID,0,VALID,103.878,VALID,0,VALID,23.6338,VALID,70,VALID,0.1375,
2011-04-15, 01:25:04,VALID,1007.66,VALID,0,VALID,103.848,VALID,0,VALID,23.6143,VALID,70,VALID,0.201172,
2011-04-15, 01:26:04,VALID,1007.64,VALID,0,VALID,103.855,VALID,0.105969,VALID,23.6143,VALID,70,VALID,0.0453125,
2011-04-15, 01:27:04,VALID,1007.64,VALID,0,VALID,103.817,VALID,0,VALID,23.6143,VALID,70,VALID,0.364062,
2011-04-15, 01:28:04,VALID,1007.62,VALID,0,VALID,103.855,VALID,0,VALID,23.5948,VALID,70,VALID,0.288281,
2011-04-15, 01:29:04,VALID,1007.64,VALID,0,VALID,103.863,VALID,0,VALID,23.5966,VALID,76,VALID,0.559766,
2011-04-15, 01:30:04,VALID,1007.62,VALID,0,VALID,103.893,VALID,0,VALID,23.5966,VALID,78,VALID,0.535547,
2011-04-15, 01:31:04,VALID,1007.62,VALID,0,VALID,103.931,VALID,0,VALID,23.5753,VALID,92,VALID,0.879297,
2011-04-15, 01:32:04,VALID,1007.62,VALID,0,VALID,103.97,VALID,0,VALID,23.6161,VALID,92,VALID,0.698438,
2011-04-15, 01:33:04,VALID,1007.62,VALID,0,VALID,103.992,VALID,0,VALID,23.6338,VALID,102,VALID,0.989062,
2011-04-15, 01:34:04,VALID,1007.6,VALID,0,VALID,103.97,VALID,0,VALID,23.655,VALID,102,VALID,0.317187,
2011-04-15, 01:35:04,VALID,1007.6,VALID,0,VALID,103.954,VALID,0,VALID,23.6532,VALID,100,VALID,0.340234,
2011-04-15, 01:36:04,VALID,1007.57,VALID,0,VALID,103.901,VALID,0,VALID,23.655,VALID,56,VALID,0.757031,
2011-04-15, 01:37:04,VALID,1007.56,VALID,0,VALID,103.848,VALID,0,VALID,23.655,VALID,64,VALID,0.29375,
2011-04-15, 01:38:04,VALID,1007.53,VALID,0,VALID,103.817,VALID,0,VALID,23.6356,VALID,86,VALID,0.85,
2011-04-15, 01:39:04,VALID,1007.54,VALID,0,VALID,103.809,VALID,0,VALID,23.6356,VALID,81,VALID,0.487891,
2011-04-15, 01:40:04,VALID,1007.5,VALID,0,VALID,103.817,VALID,0,VALID,23.655,VALID,149,VALID,0.825391,
2011-04-15, 01:41:04,VALID,1007.51,VALID,0,VALID,103.825,VALID,0,VALID,23.6532,VALID,134,VALID,0.591797,
2011-04-15, 01:42:04,VALID,1007.55,VALID,0,VALID,103.825,VALID,0,VALID,23.6532,VALID,134,VALID,0.841406,
2011-04-15, 01:43:04,VALID,1007.54,VALID,0,VALID,103.794,VALID,0,VALID,23.694,VALID,134,VALID,0.414063,
2011-04-15, 01:44:04,VALID,1007.55,VALID,0,VALID,103.764,VALID,0,VALID,23.6727,VALID,136,VALID,0.899219,
2011-04-15, 01:45:04,VALID,1007.56,VALID,0,VALID,103.642,VALID,0,VALID,23.694,VALID,129,VALID,1.08828,
2011-04-15, 01:46:04,VALID,1007.55,VALID,0,VALID,103.55,VALID,0,VALID,23.694,VALID,123,VALID,1.16953,
2011-04-15, 01:47:04,VALID,1007.52,VALID,0,VALID,103.474,VALID,0,VALID,23.6532,VALID,127,VALID,1.2793,
2011-04-15, 01:48:04,VALID,1007.53,VALID,0,VALID,103.428,VALID,0,VALID,23.6745,VALID,122,VALID,0.940234,
2011-04-15, 01:49:04,VALID,1007.47,VALID,0,VALID,103.466,VALID,0,VALID,23.6532,VALID,135,VALID,0.570313,
2011-04-15, 01:50:04,VALID,1007.47,VALID,0,VALID,103.497,VALID,0,VALID,23.6338,VALID,135,VALID,0.911328,
2011-04-15, 01:51:04,VALID,1007.43,VALID,0,VALID,103.52,VALID,0,VALID,23.6338,VALID,128,VALID,1.11328,
2011-04-15, 01:52:04,VALID,1007.41,VALID,0,VALID,103.527,VALID,0,VALID,23.6338,VALID,128,VALID,0.916797,
2011-04-15, 01:53:04,VALID,1007.4,VALID,0,VALID,103.535,VALID,0,VALID,23.655,VALID,131,VALID,1.00352,
2011-04-15, 01:54:04,VALID,1007.38,VALID,0,VALID,103.573,VALID,0,VALID,23.655,VALID,133,VALID,1.07891,
2011-04-15, 01:55:04,VALID,1007.38,VALID,0,VALID,103.558,VALID,0,VALID,23.655,VALID,128,VALID,0.882422,
2011-04-15, 01:56:04,VALID,1007.37,VALID,0,VALID,103.535,VALID,0,VALID,23.6338,VALID,132,VALID,0.808594,
2011-04-15, 01:57:04,VALID,1007.34,VALID,0,VALID,103.558,VALID,0,VALID,23.655,VALID,128,VALID,1.16641,
2011-04-15, 01:58:04,VALID,1007.35,VALID,0,VALID,103.558,VALID,0,VALID,23.655,VALID,129,VALID,1.18672,
2011-04-15, 01:59:04,VALID,1007.36,VALID,0,VALID,103.588,VALID,0,VALID,23.6338,VALID,129,VALID,1.06133,
2011-04-15, 02:00:04,VALID,1007.35,VALID,0,VALID,103.588,VALID,0,VALID,23.6338,VALID,125,VALID,0.793359,
2011-04-15, 02:01:04,VALID,1007.37,VALID,0,VALID,103.596,VALID,0.105969,VALID,23.6338,VALID,124,VALID,1.23672,
2011-04-15, 02:02:04,VALID,1007.34,VALID,0,VALID,103.619,VALID,0,VALID,23.6338,VALID,114,VALID,0.714844,
2011-04-15, 02:03:04,VALID,1007.37,VALID,0,VALID,103.619,VALID,0,VALID,23.655,VALID,104,VALID,0.984375,
2011-04-15, 02:04:04,VALID,1007.37,VALID,0,VALID,103.634,VALID,0,VALID,23.6532,VALID,99,VALID,0.588281,
2011-04-15, 02:05:04,VALID,1007.35,VALID,0,VALID,103.634,VALID,0,VALID,23.6338,VALID,96,VALID,0.847656,
2011-04-15, 02:06:04,VALID,1007.38,VALID,0,VALID,103.634,VALID,0,VALID,23.6532,VALID,94,VALID,0.858203,
2011-04-15, 02:07:04,VALID,1007.39,VALID,0,VALID,103.611,VALID,0,VALID,23.6745,VALID,97,VALID,0.697266,
2011-04-15, 02:08:04,VALID,1007.38,VALID,0,VALID,103.588,VALID,0,VALID,23.6532,VALID,120,VALID,0.85625,
2011-04-15, 02:09:04,VALID,1007.35,VALID,0,VALID,103.565,VALID,0,VALID,23.6727,VALID,142,VALID,0.760156,
2011-04-15, 02:10:04,VALID,1007.34,VALID,0,VALID,103.558,VALID,0,VALID,23.7135,VALID,130,VALID,0.755078,
2011-04-15, 02:11:04,VALID,1007.37,VALID,0,VALID,103.527,VALID,0,VALID,23.694,VALID,126,VALID,1.11484,
2011-04-15, 02:12:04,VALID,1007.39,VALID,0,VALID,103.497,VALID,0,VALID,23.694,VALID,144,VALID,0.802344,
2011-04-15, 02:13:04,VALID,1007.36,VALID,0,VALID,103.512,VALID,0,VALID,23.6922,VALID,142,VALID,1.01133,
2011-04-15, 02:14:04,VALID,1007.35,VALID,0,VALID,103.497,VALID,0,VALID,23.7117,VALID,109,VALID,0.657812,
2011-04-15, 02:15:04,VALID,1007.35,VALID,0,VALID,103.489,VALID,0,VALID,23.7135,VALID,125,VALID,1.04922,
2011-04-15, 02:16:04,VALID,1007.35,VALID,0,VALID,103.451,VALID,0,VALID,23.733,VALID,132,VALID,1.19805,
2011-04-15, 02:17:04,VALID,1007.33,VALID,0,VALID,103.405,VALID,0,VALID,23.7117,VALID,131,VALID,1.48633,
2011-04-15, 02:18:04,VALID,1007.34,VALID,0,VALID,103.337,VALID,0,VALID,23.733,VALID,136,VALID,1.17813,
2011-04-15, 02:19:04,VALID,1007.34,VALID,0,VALID,103.291,VALID,0,VALID,23.7117,VALID,110,VALID,1.12422,
2011-04-15, 02:20:04,VALID,1007.32,VALID,0,VALID,103.268,VALID,0,VALID,23.7135,VALID,117,VALID,1.22266,
2011-04-15, 02:21:04,VALID,1007.34,VALID,0,VALID,103.253,VALID,0,VALID,23.7525,VALID,101,VALID,0.860937,
2011-04-15, 02:22:04,VALID,1007.35,VALID,0,VALID,103.298,VALID,0,VALID,23.7117,VALID,118,VALID,0.675391,
2011-04-15, 02:23:04,VALID,1007.32,VALID,0,VALID,103.329,VALID,0,VALID,23.7312,VALID,94,VALID,0.319141,
2011-04-15, 02:24:04,VALID,1007.34,VALID,0,VALID,103.344,VALID,0,VALID,23.7525,VALID,84,VALID,0.425781,
2011-04-15, 02:25:04,VALID,1007.3,VALID,0,VALID,103.382,VALID,0,VALID,23.7312,VALID,97,VALID,0.667578,
2011-04-15, 02:26:04,VALID,1007.32,VALID,0,VALID,103.382,VALID,0,VALID,23.7525,VALID,106,VALID,1.00078,
2011-04-15, 02:27:04,VALID,1007.3,VALID,0,VALID,103.337,VALID,0,VALID,23.7507,VALID,106,VALID,1.22656,
2011-04-15, 02:28:04,VALID,1007.31,VALID,0,VALID,103.268,VALID,0,VALID,23.7312,VALID,105,VALID,1.03437,
2011-04-15, 02:29:04,VALID,1007.28,VALID,0,VALID,103.276,VALID,0,VALID,23.772,VALID,123,VALID,1.04883,
2011-04-15, 02:30:04,VALID,1007.29,VALID,0,VALID,103.276,VALID,0,VALID,23.772,VALID,108,VALID,0.596484,
2011-04-15, 02:31:04,VALID,1007.27,VALID,0,VALID,103.253,VALID,0,VALID,23.772,VALID,111,VALID,0.527734,
2011-04-15, 02:32:04,VALID,1007.25,VALID,0,VALID,103.268,VALID,0,VALID,23.7701,VALID,120,VALID,0.622266,
2011-04-15, 02:33:04,VALID,1007.22,VALID,0,VALID,103.314,VALID,0,VALID,23.7914,VALID,124,VALID,0.706641,
2011-04-15, 02:34:04,VALID,1007.23,VALID,0,VALID,103.207,VALID,0,VALID,23.7701,VALID,136,VALID,1.43359,
2011-04-15, 02:35:04,VALID,1007.22,VALID,0,VALID,103.07,VALID,0,VALID,23.7507,VALID,129,VALID,0.760547,
2011-04-15, 02:36:04,VALID,1007.23,VALID,0,VALID,103.039,VALID,0,VALID,23.7507,VALID,136,VALID,0.763672,
2011-04-15, 02:37:04,VALID,1007.22,VALID,0,VALID,103.001,VALID,0,VALID,23.7525,VALID,142,VALID,0.309766,
2011-04-15, 02:38:04,VALID,1007.18,VALID,0,VALID,103.039,VALID,0,VALID,23.772,VALID,142,VALID,0.68125,
2011-04-15, 02:39:04,VALID,1007.2,VALID,0,VALID,103.062,VALID,0,VALID,23.7507,VALID,141,VALID,0.528906,
2011-04-15, 02:40:04,VALID,1007.18,VALID,0,VALID,103.07,VALID,0,VALID,23.7312,VALID,150,VALID,0.685156,
2011-04-15, 02:41:04,VALID,1007.15,VALID,0,VALID,103.032,VALID,0,VALID,23.7525,VALID,135,VALID,0.858984,
2011-04-15, 02:42:04,VALID,1007.12,VALID,0,VALID,103.016,VALID,0,VALID,23.7312,VALID,124,VALID,0.791406,
2011-04-15, 02:43:04,VALID,1007.12,VALID,0,VALID,103.093,VALID,0,VALID,23.733,VALID,130,VALID,0.85625,
2011-04-15, 02:44:04,VALID,1007.1,VALID,0,VALID,103.1,VALID,0,VALID,23.733,VALID,139,VALID,0.853516,
2011-04-15, 02:45:04,VALID,1007.11,VALID,0,VALID,103.169,VALID,0,VALID,23.7117,VALID,142,VALID,1.14883,
2011-04-15, 02:46:04,VALID,1007.12,VALID,0,VALID,103.085,VALID,0,VALID,23.7135,VALID,133,VALID,1.55703,
2011-04-15, 02:47:04,VALID,1007.13,VALID,0,VALID,103.039,VALID,0,VALID,23.7117,VALID,130,VALID,0.695703,
2011-04-15, 02:48:04,VALID,1007.11,VALID,0,VALID,103.032,VALID,0,VALID,23.7135,VALID,136,VALID,0.871875,
2011-04-15, 02:49:04,VALID,1007.14,VALID,0,VALID,103.001,VALID,0,VALID,23.7135,VALID,138,VALID,0.743359,
2011-04-15, 02:50:04,VALID,1007.12,VALID,0,VALID,103.016,VALID,0,VALID,23.694,VALID,128,VALID,0.85,
2011-04-15, 02:51:04,VALID,1007.12,VALID,0,VALID,103.062,VALID,0,VALID,23.6922,VALID,127,VALID,0.855078,
2011-04-15, 02:52:04,VALID,1007.12,VALID,0,VALID,103.108,VALID,0,VALID,23.694,VALID,127,VALID,0.619922,
2011-04-15, 02:53:04,VALID,1007.11,VALID,0,VALID,103.123,VALID,0,VALID,23.7135,VALID,107,VALID,0.852344,
2011-04-15, 02:54:04,VALID,1007.11,VALID,0,VALID,103.115,VALID,0,VALID,23.6922,VALID,85,VALID,1.12656,
2011-04-15, 02:55:04,VALID,1007.09,VALID,0,VALID,103.093,VALID,0,VALID,23.6922,VALID,108,VALID,1.14102,
2011-04-15, 02:56:04,VALID,1007.13,VALID,0,VALID,103.07,VALID,0,VALID,23.733,VALID,114,VALID,0.961719,
2011-04-15, 02:57:04,VALID,1007.11,VALID,0,VALID,103.047,VALID,0,VALID,23.7135,VALID,109,VALID,1.15352,
2011-04-15, 02:58:04,VALID,1007.13,VALID,0,VALID,102.978,VALID,0,VALID,23.733,VALID,108,VALID,0.971484,
2011-04-15, 02:59:04,VALID,1007.11,VALID,0,VALID,102.993,VALID,0,VALID,23.6922,VALID,103,VALID,0.539453,
2011-04-15, 03:00:04,VALID,1007.11,VALID,0,VALID,103.001,VALID,0,VALID,23.733,VALID,103,VALID,0.677344,
2011-04-15, 03:01:04,VALID,1007.11,VALID,0,VALID,102.978,VALID,0,VALID,23.7135,VALID,105,VALID,0.8,
2011-04-15, 03:02:04,VALID,1007.09,VALID,0,VALID,103.016,VALID,0,VALID,23.733,VALID,108,VALID,0.221094,
2011-04-15, 03:03:04,VALID,1007.12,VALID,0,VALID,103.009,VALID,0,VALID,23.694,VALID,90,VALID,0.649219,
2011-04-15, 03:04:04,VALID,1007.1,VALID,0,VALID,103.016,VALID,0,VALID,23.6922,VALID,91,VALID,0.560156,
2011-04-15, 03:05:04,VALID,1007.08,VALID,0,VALID,103.047,VALID,0,VALID,23.7135,VALID,83,VALID,0.974219,
2011-04-15, 03:06:04,VALID,1007.1,VALID,0,VALID,103.062,VALID,0,VALID,23.6727,VALID,88,VALID,1.11602,
2011-04-15, 03:07:04,VALID,1007.14,VALID,0,VALID,103.1,VALID,0.105969,VALID,23.694,VALID,99,VALID,0.764844,
2011-04-15, 03:08:04,VALID,1007.14,VALID,0,VALID,103.138,VALID,0,VALID,23.6745,VALID,97,VALID,0.332422,
2011-04-15, 03:09:04,VALID,1007.15,VALID,0,VALID,103.154,VALID,0,VALID,23.6745,VALID,95,VALID,0.622266,
2011-04-15, 03:10:04,VALID,1007.18,VALID,0,VALID,103.192,VALID,0,VALID,23.6745,VALID,95,VALID,0.825,
2011-04-15, 03:11:04,VALID,1007.17,VALID,0,VALID,103.253,VALID,0,VALID,23.6532,VALID,106,VALID,0.61875,
2011-04-15, 03:12:04,VALID,1007.19,VALID,0,VALID,103.268,VALID,0,VALID,23.655,VALID,107,VALID,0.923437,
2011-04-15, 03:13:04,VALID,1007.17,VALID,0,VALID,103.291,VALID,0,VALID,23.655,VALID,117,VALID,0.614844,
2011-04-15, 03:14:04,VALID,1007.16,VALID,0,VALID,103.283,VALID,0,VALID,23.6356,VALID,113,VALID,0.277734,
2011-04-15, 03:15:04,VALID,1007.15,VALID,0,VALID,103.298,VALID,0,VALID,23.6143,VALID,113,VALID,0.408594,
2011-04-15, 03:16:04,VALID,1007.18,VALID,0,VALID,103.321,VALID,0,VALID,23.6143,VALID,113,VALID,0.457812,
2011-04-15, 03:17:04,VALID,1007.2,VALID,0,VALID,103.321,VALID,0,VALID,23.6143,VALID,113,VALID,0.0046875,
2011-04-15, 03:18:04,VALID,1007.18,VALID,0,VALID,103.344,VALID,0,VALID,23.6161,VALID,113,VALID,0.308594,
2011-04-15, 03:19:04,VALID,1007.19,VALID,0,VALID,103.352,VALID,0,VALID,23.6161,VALID,113,VALID,0.16875,
2011-04-15, 03:20:04,VALID,1007.19,VALID,0,VALID,103.367,VALID,0,VALID,23.6161,VALID,113,VALID,0,
2011-04-15, 03:21:04,VALID,1007.18,VALID,0,VALID,103.413,VALID,0,VALID,23.5966,VALID,107,VALID,0.521875,
2011-04-15, 03:22:04,VALID,1007.19,VALID,0,VALID,103.42,VALID,0.105969,VALID,23.6161,VALID,117,VALID,0.890625,
2011-04-15, 03:23:04,VALID,1007.18,VALID,0,VALID,103.405,VALID,0,VALID,23.6161,VALID,100,VALID,0.596094,
2011-04-15, 03:24:04,VALID,1007.17,VALID,0,VALID,103.413,VALID,0,VALID,23.6161,VALID,95,VALID,0.775781,
2011-04-15, 03:25:04,VALID,1007.2,VALID,0,VALID,103.398,VALID,0,VALID,23.5735,VALID,82,VALID,0.512891,
2011-04-15, 03:26:04,VALID,1007.17,VALID,0,VALID,103.39,VALID,0.105969,VALID,23.5948,VALID,78,VALID,0.788672,
2011-04-15, 03:27:04,VALID,1007.19,VALID,0,VALID,103.405,VALID,0,VALID,23.5558,VALID,73,VALID,0.555859,
2011-04-15, 03:28:04,VALID,1007.2,VALID,0,VALID,103.42,VALID,0,VALID,23.5558,VALID,65,VALID,0.763672,
2011-04-15, 03:29:04,VALID,1007.19,VALID,0,VALID,103.451,VALID,0.105969,VALID,23.5363,VALID,63,VALID,0.440234,
2011-04-15, 03:30:04,VALID,1007.18,VALID,0,VALID,103.474,VALID,0,VALID,23.4974,VALID,66,VALID,0.260156,
2011-04-15, 03:31:04,VALID,1007.18,VALID,0,VALID,103.512,VALID,0.105969,VALID,23.4779,VALID,66,VALID,0.40625,
2011-04-15, 03:32:04,VALID,1007.17,VALID,0,VALID,103.55,VALID,0.105969,VALID,23.4584,VALID,74,VALID,0.820703,
2011-04-15, 03:33:04,VALID,1007.19,VALID,0,VALID,103.619,VALID,0,VALID,23.4584,VALID,74,VALID,0.423828,
2011-04-15, 03:34:04,VALID,1007.18,VALID,0,VALID,103.687,VALID,0.105969,VALID,23.4389,VALID,79,VALID,0.333984,
2011-04-15, 03:35:04,VALID,1007.2,VALID,0,VALID,103.718,VALID,0.105969,VALID,23.4194,VALID,87,VALID,0.750391,
2011-04-15, 03:36:04,VALID,1007.18,VALID,0,VALID,103.787,VALID,0,VALID,23.4194,VALID,80,VALID,0.451953,
2011-04-15, 03:37:04,VALID,1007.19,VALID,0,VALID,103.817,VALID,0.105969,VALID,23.4,VALID,74,VALID,0.614453,
2011-04-15, 03:38:04,VALID,1007.17,VALID,0,VALID,103.886,VALID,0.105969,VALID,23.3805,VALID,77,VALID,0.861328,
2011-04-15, 03:39:04,VALID,1007.17,VALID,0,VALID,103.916,VALID,0.105969,VALID,23.4,VALID,109,VALID,0.758594,
2011-04-15, 03:40:04,VALID,1007.19,VALID,0,VALID,103.939,VALID,0,VALID,23.3805,VALID,87,VALID,0.675,
2011-04-15, 03:41:04,VALID,1007.22,VALID,0,VALID,103.962,VALID,0,VALID,23.361,VALID,93,VALID,0.834766,
2011-04-15, 03:42:04,VALID,1007.21,VALID,0,VALID,103.992,VALID,0.105969,VALID,23.3805,VALID,113,VALID,0.542188,
2011-04-15, 03:43:04,VALID,1007.21,VALID,0,VALID,104,VALID,0.105969,VALID,23.3805,VALID,113,VALID,0.339063,
2011-04-15, 03:44:04,VALID,1007.2,VALID,0,VALID,104,VALID,0.105969,VALID,23.3805,VALID,113,VALID,0.409766,
2011-04-15, 03:45:04,VALID,1007.2,VALID,0,VALID,104,VALID,0.105969,VALID,23.3805,VALID,120,VALID,0.711328,
2011-04-15, 03:46:04,VALID,1007.19,VALID,0,VALID,104,VALID,0,VALID,23.361,VALID,107,VALID,1.05586,